Location: Val-d'Or
(48.1170°N, 77.7670°W)
Time: 06:18:04
(UTC-04:00)

ISS - Pass Details

Date: 21 May 2018
Orbit: 402 x 407 km, 51.6° (Epoch: 24 May)

Event Time Altitude Azimuth Distance (km) Brightness Sun altitude
Rises 00:54:35 0° 273° (W) 2,317 0.1 -21.6°
Reaches altitude 10° 00:56:43 10° 280° (W) 1,458 -0.9 -21.7°
Maximum altitude 00:59:52 44° 354° (N) 568 -2.7 -21.7°
Drops below altitude 10° 01:03:01 10° 69° (ENE) 1,458 -0.8 -21.7°
Sets 01:05:10 0° 76° (ENE) 2,318 0.2 -21.7°
